Time,TemperatureF,DewpointF,PressureIn,WindDirection,WindDirectionDegrees,WindSpeedMPH,WindSpeedGustMPH,Humidity,HourlyPrecipIn,Conditions,Clouds,dailyrainin,SoftwareType,DateUTC
2013-03-08 00:00:00,35.5,27.7,30.23,NW,322,1.0,1.0,73,0.00,,,0.03,Wunderground v.1.15,2013-03-08 05:00:00,
2013-03-08 00:05:00,35.6,27.8,30.23,NNW,328,1.0,1.0,73,0.00,,,0.00,Wunderground v.1.15,2013-03-08 05:05:00,
2013-03-08 00:10:00,35.7,27.9,30.23,NNW,338,1.0,1.0,73,0.00,,,0.00,Wunderground v.1.15,2013-03-08 05:10:00,
2013-03-08 00:15:00,36.0,28.2,30.22,NW,305,1.0,3.0,73,0.00,,,0.00,Wunderground v.1.15,2013-03-08 05:15:00,
2013-03-08 00:20:00,36.3,28.5,30.23,North,354,2.0,3.0,73,0.00,,,0.00,Wunderground v.1.15,2013-03-08 05:20:00,
2013-03-08 00:25:00,36.5,28.7,30.22,NNW,330,3.0,4.0,73,0.00,,,0.00,Wunderground v.1.15,2013-03-08 05:25:00,
2013-03-08 00:30:00,36.6,28.8,30.23,WNW,302,3.0,3.0,73,0.00,,,0.00,Wunderground v.1.15,2013-03-08 05:30:00,
2013-03-08 00:35:00,36.7,28.9,30.22,NW,314,3.0,5.0,73,0.00,,,0.00,Wunderground v.1.15,2013-03-08 05:35:00,
2013-03-08 00:40:00,36.6,28.8,30.22,NNW,340,3.0,5.0,73,0.00,,,0.00,Wunderground v.1.15,2013-03-08 05:40:00,
2013-03-08 00:45:00,36.6,28.8,30.22,WNW,302,3.0,5.0,73,0.00,,,0.00,Wunderground v.1.15,2013-03-08 05:45:00,
2013-03-08 00:50:00,36.6,28.8,30.22,West,276,3.0,3.0,73,0.00,,,0.00,Wunderground v.1.15,2013-03-08 05:50:00,
2013-03-08 00:55:00,36.5,28.7,30.22,WNW,295,3.0,3.0,73,0.00,,,0.00,Wunderground v.1.15,2013-03-08 05:55:00,
2013-03-08 01:00:00,36.5,28.7,30.23,NW,316,3.0,4.0,73,0.00,,,0.00,Wunderground v.1.15,2013-03-08 06:00:00,
2013-03-08 01:05:00,36.4,28.6,30.23,North,349,3.0,4.0,73,0.00,,,0.00,Wunderground v.1.15,2013-03-08 06:05:00,
2013-03-08 01:10:00,36.4,28.2,30.23,WNW,293,3.0,3.0,72,0.00,,,0.00,Wunderground v.1.15,2013-03-08 06:10:00,
2013-03-08 01:15:00,36.2,28.0,30.23,NNW,332,3.0,3.0,72,0.00,,,0.00,Wunderground v.1.15,2013-03-08 06:15:00,
2013-03-08 01:20:00,35.9,27.7,30.23,North,357,2.0,3.0,72,0.00,,,0.00,Wunderground v.1.15,2013-03-08 06:20:00,
2013-03-08 01:25:00,35.6,27.5,30.22,NNE,18,2.0,3.0,72,0.00,,,0.00,Wunderground v.1.15,2013-03-08 06:25:00,
2013-03-08 01:30:00,35.5,27.4,30.22,NNE,25,3.0,3.0,72,0.00,,,0.00,Wunderground v.1.15,2013-03-08 06:30:00,
2013-03-08 01:35:00,35.4,26.9,30.22,North,9,3.0,3.0,71,0.00,,,0.00,Wunderground v.1.15,2013-03-08 06:35:00,
2013-03-08 01:40:00,35.2,27.1,30.22,North,349,2.0,2.0,72,0.00,,,0.00,Wunderground v.1.15,2013-03-08 06:40:00,
2013-03-08 01:45:00,35.1,27.0,30.22,NNE,22,2.0,4.0,72,0.00,,,0.00,Wunderground v.1.15,2013-03-08 06:45:00,
2013-03-08 01:50:00,34.8,26.7,30.22,NNW,332,2.0,2.0,72,0.00,,,0.00,Wunderground v.1.15,2013-03-08 06:50:00,
2013-03-08 01:55:00,34.7,26.6,30.22,North,356,2.0,2.0,72,0.00,,,0.00,Wunderground v.1.15,2013-03-08 06:55:00,
2013-03-08 02:01:00,34.7,26.6,30.23,NW,316,2.0,2.0,72,0.00,,,0.00,Wunderground v.1.15,2013-03-08 07:01:00,
2013-03-08 02:05:00,34.5,26.4,30.22,NW,322,2.0,2.0,72,0.00,,,0.00,Wunderground v.1.15,2013-03-08 07:05:00,
2013-03-08 02:10:00,34.4,26.3,30.22,NNW,347,1.0,1.0,72,0.00,,,0.00,Wunderground v.1.15,2013-03-08 07:10:00,
2013-03-08 02:15:00,34.3,26.5,30.22,NNE,23,1.0,2.0,73,0.00,,,0.00,Wunderground v.1.15,2013-03-08 07:15:00,
2013-03-08 02:20:00,34.3,26.2,30.22,NNW,340,2.0,2.0,72,0.00,,,0.00,Wunderground v.1.15,2013-03-08 07:20:00,
2013-03-08 02:25:00,34.1,26.0,30.22,North,355,2.0,2.0,72,0.00,,,0.00,Wunderground v.1.15,2013-03-08 07:25:00,
2013-03-08 02:30:00,34.2,26.1,30.22,North,352,2.0,2.0,72,0.00,,,0.00,Wunderground v.1.15,2013-03-08 07:30:00,
2013-03-08 02:35:00,34.0,25.9,30.22,NNW,343,1.0,2.0,72,0.00,,,0.00,Wunderground v.1.15,2013-03-08 07:35:00,
2013-03-08 02:40:00,33.7,26.0,30.22,NNW,346,0.0,1.0,73,0.00,,,0.00,Wunderground v.1.15,2013-03-08 07:40:00,
2013-03-08 02:45:00,33.9,25.8,30.22,NNW,328,1.0,1.0,72,0.00,,,0.00,Wunderground v.1.15,2013-03-08 07:45:00,
2013-03-08 02:50:00,34.0,25.9,30.22,NNW,334,2.0,7.0,72,0.00,,,0.00,Wunderground v.1.15,2013-03-08 07:50:00,
2013-03-08 02:55:00,34.8,26.0,30.22,NW,326,4.0,7.0,70,0.00,,,0.00,Wunderground v.1.15,2013-03-08 07:55:00,
2013-03-08 03:00:00,34.9,25.8,30.22,NW,316,4.0,4.0,69,0.00,,,0.00,Wunderground v.1.15,2013-03-08 08:00:00,
2013-03-08 03:05:00,34.8,25.7,30.22,North,349,2.0,4.0,69,0.00,,,0.00,Wunderground v.1.15,2013-03-08 08:05:00,
2013-03-08 03:10:00,35.1,25.6,30.22,NNW,342,2.0,2.0,68,0.00,,,0.00,Wunderground v.1.15,2013-03-08 08:10:00,
2013-03-08 03:15:00,35.3,25.1,30.22,West,280,4.0,4.0,66,0.00,,,0.00,Wunderground v.1.15,2013-03-08 08:15:00,
2013-03-08 03:20:00,35.3,25.1,30.22,WNW,283,4.0,8.0,66,0.00,,,0.00,Wunderground v.1.15,2013-03-08 08:20:00,
2013-03-08 03:25:00,35.4,24.8,30.22,WNW,297,4.0,8.0,65,0.00,,,0.00,Wunderground v.1.15,2013-03-08 08:25:00,
2013-03-08 03:30:00,35.6,25.0,30.22,WNW,290,6.0,6.0,65,0.00,,,0.00,Wunderground v.1.15,2013-03-08 08:30:00,
2013-03-08 03:35:00,35.6,25.4,30.22,West,273,6.0,6.0,66,0.00,,,0.00,Wunderground v.1.15,2013-03-08 08:35:00,
2013-03-08 03:40:00,35.6,25.0,30.22,North,349,5.0,5.0,65,0.00,,,0.00,Wunderground v.1.15,2013-03-08 08:40:00,
2013-03-08 03:45:00,35.5,25.3,30.22,West,277,5.0,5.0,66,0.00,,,0.00,Wunderground v.1.15,2013-03-08 08:45:00,
2013-03-08 03:50:00,35.3,25.4,30.22,West,278,5.0,5.0,67,0.00,,,0.00,Wunderground v.1.15,2013-03-08 08:50:00,
2013-03-08 03:55:00,35.3,25.4,30.22,WNW,285,5.0,5.0,67,0.00,,,0.00,Wunderground v.1.15,2013-03-08 08:55:00,
2013-03-08 04:00:00,35.3,25.4,30.22,NW,310,5.0,5.0,67,0.00,,,0.00,Wunderground v.1.15,2013-03-08 09:00:00,
2013-03-08 04:05:00,35.3,25.4,30.22,WNW,284,4.0,5.0,67,0.00,,,0.00,Wunderground v.1.15,2013-03-08 09:05:00,
2013-03-08 04:10:00,35.2,25.3,30.23,NW,318,3.0,3.0,67,0.00,,,0.00,Wunderground v.1.15,2013-03-08 09:10:00,
2013-03-08 04:15:00,35.1,25.6,30.23,West,263,3.0,4.0,68,0.00,,,0.00,Wunderground v.1.15,2013-03-08 09:15:00,
2013-03-08 04:20:00,35.1,25.6,30.23,NW,314,3.0,3.0,68,0.00,,,0.00,Wunderground v.1.15,2013-03-08 09:20:00,
2013-03-08 04:25:00,35.1,25.2,30.23,NNW,338,3.0,6.0,67,0.00,,,0.00,Wunderground v.1.15,2013-03-08 09:25:00,
2013-03-08 04:30:00,35.1,25.2,30.23,WNW,288,4.0,6.0,67,0.00,,,0.00,Wunderground v.1.15,2013-03-08 09:30:00,
2013-03-08 04:35:00,35.1,25.2,30.22,NW,311,5.0,8.0,67,0.00,,,0.00,Wunderground v.1.15,2013-03-08 09:35:00,
2013-03-08 04:40:00,35.2,25.3,30.23,NW,316,6.0,8.0,67,0.00,,,0.00,Wunderground v.1.15,2013-03-08 09:40:00,
2013-03-08 04:45:00,35.2,25.3,30.23,NW,321,5.0,8.0,67,0.00,,,0.00,Wunderground v.1.15,2013-03-08 09:45:00,
2013-03-08 04:50:00,35.1,25.6,30.23,WNW,285,5.0,6.0,68,0.00,,,0.00,Wunderground v.1.15,2013-03-08 09:50:00,
2013-03-08 04:55:00,35.1,25.6,30.24,WNW,295,5.0,6.0,68,0.00,,,0.00,Wunderground v.1.15,2013-03-08 09:55:00,
2013-03-08 05:00:00,35.1,25.6,30.24,NNW,346,5.0,6.0,68,0.00,,,0.00,Wunderground v.1.15,2013-03-08 10:00:00,
2013-03-08 05:05:00,35.0,25.9,30.24,West,267,5.0,6.0,69,0.00,,,0.00,Wunderground v.1.15,2013-03-08 10:05:00,
2013-03-08 05:10:00,35.0,25.9,30.24,NW,314,4.0,6.0,69,0.00,,,0.00,Wunderground v.1.15,2013-03-08 10:10:00,
2013-03-08 05:15:00,34.9,25.8,30.24,WNW,290,4.0,6.0,69,0.00,,,0.00,Wunderground v.1.15,2013-03-08 10:15:00,
2013-03-08 05:20:00,34.9,25.4,30.24,WNW,294,4.0,6.0,68,0.00,,,0.00,Wunderground v.1.15,2013-03-08 10:20:00,
2013-03-08 05:25:00,35.0,25.5,30.24,NW,308,4.0,6.0,68,0.00,,,0.00,Wunderground v.1.15,2013-03-08 10:25:00,
2013-03-08 05:30:00,35.0,25.5,30.24,NW,322,4.0,4.0,68,0.00,,,0.00,Wunderground v.1.15,2013-03-08 10:30:00,
2013-03-08 05:35:00,35.0,25.5,30.25,NW,311,4.0,6.0,68,0.00,,,0.00,Wunderground v.1.15,2013-03-08 10:35:00,
2013-03-08 05:40:00,35.0,25.5,30.25,NNW,333,4.0,4.0,68,0.00,,,0.00,Wunderground v.1.15,2013-03-08 10:40:00,
2013-03-08 05:45:00,34.9,25.4,30.25,NNW,334,4.0,4.0,68,0.00,,,0.00,Wunderground v.1.15,2013-03-08 10:45:00,
2013-03-08 05:50:00,34.9,25.4,30.25,NW,325,3.0,4.0,68,0.00,,,0.00,Wunderground v.1.15,2013-03-08 10:50:00,
2013-03-08 05:55:00,34.8,25.3,30.25,NW,311,3.0,7.0,68,0.00,,,0.00,Wunderground v.1.15,2013-03-08 10:55:00,
2013-03-08 06:01:00,34.9,25.4,30.25,NW,316,4.0,4.0,68,0.00,,,0.00,Wunderground v.1.15,2013-03-08 11:01:00,
2013-03-08 06:05:00,34.8,25.3,30.25,NW,321,4.0,4.0,68,0.00,,,0.00,Wunderground v.1.15,2013-03-08 11:05:00,
2013-03-08 06:10:00,34.8,25.7,30.26,NW,325,4.0,7.0,69,0.00,,,0.00,Wunderground v.1.15,2013-03-08 11:10:00,
2013-03-08 06:15:00,34.8,25.7,30.26,WNW,293,4.0,7.0,69,0.00,,,0.00,Wunderground v.1.15,2013-03-08 11:15:00,
2013-03-08 06:20:00,34.7,25.6,30.26,NNE,25,3.0,4.0,69,0.00,,,0.00,Wunderground v.1.15,2013-03-08 11:20:00,
2013-03-08 06:25:00,34.6,25.5,30.26,NNE,25,3.0,4.0,69,0.00,,,0.00,Wunderground v.1.15,2013-03-08 11:25:00,
2013-03-08 06:30:00,34.7,25.2,30.26,NNW,339,4.0,4.0,68,0.00,,,0.00,Wunderground v.1.15,2013-03-08 11:30:00,
2013-03-08 06:35:00,34.7,24.9,30.27,North,355,5.0,8.0,67,0.00,,,0.00,Wunderground v.1.15,2013-03-08 11:35:00,
2013-03-08 06:40:00,34.7,24.9,30.27,NNW,338,6.0,6.0,67,0.00,,,0.00,Wunderground v.1.15,2013-03-08 11:40:00,
2013-03-08 06:45:00,34.7,24.9,30.27,NNE,33,5.0,6.0,67,0.00,,,0.00,Wunderground v.1.15,2013-03-08 11:45:00,
2013-03-08 06:50:00,34.7,24.5,30.27,NNW,336,5.0,11.0,66,0.00,,,0.00,Wunderground v.1.15,2013-03-08 11:50:00,
2013-03-08 06:55:00,34.7,24.5,30.27,North,356,6.0,11.0,66,0.00,,,0.00,Wunderground v.1.15,2013-03-08 11:55:00,
2013-03-08 07:00:00,34.7,24.9,30.27,NNW,335,5.0,5.0,67,0.00,,,0.00,Wunderground v.1.15,2013-03-08 12:00:00,
2013-03-08 07:05:00,34.6,24.8,30.27,WNW,283,5.0,5.0,67,0.00,,,0.00,Wunderground v.1.15,2013-03-08 12:05:00,
2013-03-08 07:10:00,34.7,24.9,30.27,NNE,13,5.0,5.0,67,0.00,,,0.00,Wunderground v.1.15,2013-03-08 12:10:00,
2013-03-08 07:15:00,34.7,25.2,30.27,NW,316,5.0,5.0,68,0.00,,,0.00,Wunderground v.1.15,2013-03-08 12:15:00,
2013-03-08 07:20:00,34.8,25.3,30.27,NNW,342,5.0,5.0,68,0.00,,,0.00,Wunderground v.1.15,2013-03-08 12:20:00,
2013-03-08 07:25:00,34.7,25.2,30.27,NW,325,3.0,5.0,68,0.00,,,0.00,Wunderground v.1.15,2013-03-08 12:25:00,
2013-03-08 07:30:00,34.6,25.1,30.28,WNW,295,2.0,3.0,68,0.00,,,0.00,Wunderground v.1.15,2013-03-08 12:30:00,
2013-03-08 07:35:00,34.4,25.3,30.27,West,260,3.0,3.0,69,0.00,,,0.00,Wunderground v.1.15,2013-03-08 12:35:00,
2013-03-08 07:40:00,34.3,25.2,30.28,NW,322,4.0,4.0,69,0.00,,,0.00,Wunderground v.1.15,2013-03-08 12:40:00,
2013-03-08 07:45:00,34.3,25.2,30.28,West,263,4.0,5.0,69,0.00,,,0.00,Wunderground v.1.15,2013-03-08 12:45:00,
2013-03-08 07:50:00,34.4,24.9,30.28,WNW,293,4.0,4.0,68,0.00,,,0.00,Wunderground v.1.15,2013-03-08 12:50:00,
2013-03-08 08:00:00,34.7,24.9,30.28,NW,325,6.0,6.0,67,0.00,,,0.00,Wunderground v.1.15,2013-03-08 13:00:00,
2013-03-08 08:05:00,34.8,25.0,30.29,NNW,343,6.0,6.0,67,0.00,,,0.00,Wunderground v.1.15,2013-03-08 13:05:00,
2013-03-08 08:10:00,35.0,24.8,30.29,NW,316,7.0,7.0,66,0.00,,,0.00,Wunderground v.1.15,2013-03-08 13:10:00,
2013-03-08 08:15:00,35.1,24.9,30.29,WNW,302,6.0,7.0,66,0.00,,,0.00,Wunderground v.1.15,2013-03-08 13:15:00,
2013-03-08 08:20:00,35.2,25.0,30.28,NW,314,6.0,10.0,66,0.00,,,0.00,Wunderground v.1.15,2013-03-08 13:20:00,
2013-03-08 08:25:00,35.2,24.6,30.27,West,274,7.0,13.0,65,0.00,,,0.00,Wunderground v.1.15,2013-03-08 13:25:00,
2013-03-08 08:30:00,35.1,24.5,30.27,WNW,302,8.0,12.0,65,0.00,,,0.00,Wunderground v.1.15,2013-03-08 13:30:00,
2013-03-08 08:35:00,35.1,24.1,30.28,NW,317,8.0,17.0,64,0.00,,,0.00,Wunderground v.1.15,2013-03-08 13:35:00,
2013-03-08 08:40:00,35.1,24.1,30.29,NNE,20,8.0,8.0,64,0.00,,,0.00,Wunderground v.1.15,2013-03-08 13:40:00,
2013-03-08 08:45:00,35.1,24.1,30.30,North,349,7.0,8.0,64,0.00,,,0.00,Wunderground v.1.15,2013-03-08 13:45:00,
2013-03-08 08:50:00,35.6,24.2,30.30,NNW,342,6.0,6.0,63,0.00,,,0.00,Wunderground v.1.15,2013-03-08 13:50:00,
2013-03-08 08:55:00,36.0,24.2,30.29,WNW,295,6.0,7.0,62,0.00,,,0.00,Wunderground v.1.15,2013-03-08 13:55:00,
2013-03-08 09:00:00,36.0,24.6,30.27,WNW,293,8.0,10.0,63,0.00,,,0.00,Wunderground v.1.15,2013-03-08 14:00:00,
2013-03-08 09:05:00,35.8,24.0,30.28,NW,315,9.0,10.0,62,0.00,,,0.00,Wunderground v.1.15,2013-03-08 14:05:00,
2013-03-08 09:10:00,35.7,24.3,30.30,NNE,13,8.0,8.0,63,0.00,,,0.00,Wunderground v.1.15,2013-03-08 14:10:00,
2013-03-08 09:15:00,35.9,24.5,30.30,North,354,6.0,8.0,63,0.00,,,0.00,Wunderground v.1.15,2013-03-08 14:15:00,
2013-03-08 09:20:00,36.1,24.7,30.31,NNW,327,6.0,6.0,63,0.00,,,0.00,Wunderground v.1.15,2013-03-08 14:20:00,
2013-03-08 09:25:00,36.4,24.6,30.30,North,349,6.0,6.0,62,0.00,,,0.00,Wunderground v.1.15,2013-03-08 14:25:00,
2013-03-08 09:30:00,36.8,24.6,30.30,NNW,333,6.0,8.0,61,0.00,,,0.00,Wunderground v.1.15,2013-03-08 14:30:00,
2013-03-08 09:35:00,37.1,25.3,30.30,NW,321,7.0,8.0,62,0.00,,,0.00,Wunderground v.1.15,2013-03-08 14:35:00,
2013-03-08 09:40:00,37.5,24.9,30.30,NNW,328,7.0,10.0,60,0.00,,,0.00,Wunderground v.1.15,2013-03-08 14:40:00,
2013-03-08 09:45:00,38.0,25.3,30.29,NW,322,8.0,10.0,60,0.00,,,0.00,Wunderground v.1.15,2013-03-08 14:45:00,
2013-03-08 09:50:00,38.4,25.3,30.29,WNW,283,7.0,7.0,59,0.00,,,0.00,Wunderground v.1.15,2013-03-08 14:50:00,
2013-03-08 09:55:00,38.2,24.7,30.30,NNW,344,7.0,8.0,58,0.00,,,0.00,Wunderground v.1.15,2013-03-08 14:55:00,
2013-03-08 10:00:00,37.9,25.2,30.29,NW,325,9.0,9.0,60,0.00,,,0.00,Wunderground v.1.15,2013-03-08 15:00:00,
2013-03-08 10:05:00,37.7,25.1,30.30,WNW,290,8.0,9.0,60,0.00,,,0.00,Wunderground v.1.15,2013-03-08 15:05:00,
2013-03-08 10:10:00,37.6,25.4,30.30,WNW,297,7.0,12.0,61,0.00,,,0.00,Wunderground v.1.15,2013-03-08 15:10:00,
2013-03-08 10:15:00,37.5,25.3,30.30,NW,304,7.0,12.0,61,0.00,,,0.00,Wunderground v.1.15,2013-03-08 15:15:00,
2013-03-08 10:20:00,37.5,24.9,30.30,NNE,23,8.0,8.0,60,0.00,,,0.00,Wunderground v.1.15,2013-03-08 15:20:00,
2013-03-08 10:25:00,37.8,25.5,30.30,NW,310,8.0,8.0,61,0.00,,,0.00,Wunderground v.1.15,2013-03-08 15:25:00,
2013-03-08 10:30:00,38.4,25.3,30.30,NNW,343,8.0,10.0,59,0.00,,,0.00,Wunderground v.1.15,2013-03-08 15:30:00,
2013-03-08 10:35:00,38.7,25.6,30.29,North,359,8.0,10.0,59,0.00,,,0.00,Wunderground v.1.15,2013-03-08 15:35:00,
2013-03-08 10:40:00,38.6,25.1,30.29,NW,316,8.0,8.0,58,0.00,,,0.00,Wunderground v.1.15,2013-03-08 15:40:00,
2013-03-08 10:45:00,38.5,25.4,30.30,WNW,283,7.0,8.0,59,0.00,,,0.00,Wunderground v.1.15,2013-03-08 15:45:00,
2013-03-08 10:50:00,38.5,25.8,30.30,NW,314,6.0,6.0,60,0.00,,,0.00,Wunderground v.1.15,2013-03-08 15:50:00,
2013-03-08 10:55:00,38.5,25.8,30.30,NW,323,5.0,7.0,60,0.00,,,0.00,Wunderground v.1.15,2013-03-08 15:55:00,
2013-03-08 11:00:00,38.6,25.1,30.30,NW,307,6.0,6.0,58,0.00,,,0.00,Wunderground v.1.15,2013-03-08 16:00:00,
2013-03-08 11:05:00,38.7,25.6,30.29,WNW,300,7.0,7.0,59,0.00,,,0.00,Wunderground v.1.15,2013-03-08 16:05:00,
2013-03-08 11:10:00,38.9,25.8,30.29,NNW,340,6.0,6.0,59,0.00,,,0.00,Wunderground v.1.15,2013-03-08 16:10:00,
2013-03-08 11:15:00,38.9,25.8,30.29,NW,315,6.0,6.0,59,0.00,,,0.00,Wunderground v.1.15,2013-03-08 16:15:00,
2013-03-08 11:20:00,39.1,26.0,30.29,NW,321,6.0,6.0,59,0.00,,,0.00,Wunderground v.1.15,2013-03-08 16:20:00,
2013-03-08 11:25:00,39.1,25.6,30.29,NW,312,6.0,9.0,58,0.00,,,0.00,Wunderground v.1.15,2013-03-08 16:25:00,
2013-03-08 11:30:00,39.2,26.1,30.29,NNW,332,7.0,7.0,59,0.00,,,0.00,Wunderground v.1.15,2013-03-08 16:30:00,
2013-03-08 11:35:00,39.1,26.0,30.29,WNW,283,7.0,7.0,59,0.00,,,0.00,Wunderground v.1.15,2013-03-08 16:35:00,
2013-03-08 11:40:00,39.3,26.6,30.29,NW,316,6.0,7.0,60,0.00,,,0.00,Wunderground v.1.15,2013-03-08 16:40:00,
2013-03-08 11:45:00,39.4,25.8,30.29,NNW,332,6.0,10.0,58,0.00,,,0.00,Wunderground v.1.15,2013-03-08 16:45:00,
2013-03-08 11:50:00,39.3,25.7,30.29,NW,314,7.0,9.0,58,0.00,,,0.00,Wunderground v.1.15,2013-03-08 16:50:00,
2013-03-08 11:55:00,39.4,26.2,30.28,NW,306,7.0,9.0,59,0.00,,,0.00,Wunderground v.1.15,2013-03-08 16:55:00,
2013-03-08 12:00:00,39.4,26.7,30.28,WNW,288,7.0,7.0,60,0.00,,,0.00,Wunderground v.1.15,2013-03-08 17:00:00,
2013-03-08 12:05:00,38.9,26.6,30.28,WNW,288,7.0,7.0,61,0.00,,,0.00,Wunderground v.1.15,2013-03-08 17:05:00,
2013-03-08 12:10:00,39.2,26.9,30.28,NW,304,7.0,7.0,61,0.00,,,0.00,Wunderground v.1.15,2013-03-08 17:10:00,
2013-03-08 12:15:00,39.2,26.5,30.28,NW,323,6.0,7.0,60,0.00,,,0.00,Wunderground v.1.15,2013-03-08 17:15:00,
2013-03-08 12:20:00,39.2,26.9,30.28,NNW,328,7.0,12.0,61,0.00,,,0.00,Wunderground v.1.15,2013-03-08 17:20:00,
2013-03-08 12:25:00,39.3,27.0,30.28,NW,314,8.0,12.0,61,0.00,,,0.00,Wunderground v.1.15,2013-03-08 17:25:00,
2013-03-08 12:30:00,39.3,27.4,30.28,NW,312,8.0,8.0,62,0.00,,,0.00,Wunderground v.1.15,2013-03-08 17:30:00,
2013-03-08 12:35:00,39.5,27.5,30.28,WNW,293,7.0,8.0,62,0.00,,,0.00,Wunderground v.1.15,2013-03-08 17:35:00,
2013-03-08 12:40:00,39.7,26.9,30.27,NW,316,7.0,9.0,60,0.00,,,0.00,Wunderground v.1.15,2013-03-08 17:40:00,
2013-03-08 12:45:00,39.6,27.2,30.28,WNW,297,8.0,9.0,61,0.00,,,0.00,Wunderground v.1.15,2013-03-08 17:45:00,
2013-03-08 12:50:00,39.2,27.3,30.27,North,356,8.0,8.0,62,0.00,,,0.00,Wunderground v.1.15,2013-03-08 17:50:00,
2013-03-08 12:55:00,39.4,27.1,30.27,NNW,336,7.0,8.0,61,0.00,,,0.00,Wunderground v.1.15,2013-03-08 17:55:00,
2013-03-08 13:00:00,39.4,27.1,30.27,NW,315,6.0,9.0,61,0.00,,,0.00,Wunderground v.1.15,2013-03-08 18:00:00,
2013-03-08 13:05:00,39.3,27.4,30.27,NW,316,6.0,9.0,62,0.00,,,0.00,Wunderground v.1.15,2013-03-08 18:05:00,
2013-03-08 13:10:00,39.5,26.8,30.27,NW,321,6.0,6.0,60,0.00,,,0.00,Wunderground v.1.15,2013-03-08 18:10:00,
2013-03-08 13:15:00,39.6,27.6,30.27,North,8,6.0,6.0,62,0.00,,,0.00,Wunderground v.1.15,2013-03-08 18:15:00,
2013-03-08 13:20:00,39.7,26.9,30.27,North,11,6.0,11.0,60,0.00,,,0.00,Wunderground v.1.15,2013-03-08 18:20:00,
2013-03-08 13:25:00,39.5,26.8,30.26,NW,321,7.0,11.0,60,0.00,,,0.00,Wunderground v.1.15,2013-03-08 18:25:00,
2013-03-08 13:30:00,39.6,26.8,30.27,NNW,333,9.0,9.0,60,0.00,,,0.00,Wunderground v.1.15,2013-03-08 18:30:00,
2013-03-08 13:35:00,40.0,27.6,30.26,NW,310,7.0,9.0,61,0.00,,,0.00,Wunderground v.1.15,2013-03-08 18:35:00,
2013-03-08 13:40:00,40.1,27.3,30.26,North,349,7.0,9.0,60,0.00,,,0.00,Wunderground v.1.15,2013-03-08 18:40:00,
2013-03-08 13:45:00,40.4,27.2,30.26,NW,307,8.0,9.0,59,0.00,,,0.00,Wunderground v.1.15,2013-03-08 18:45:00,
2013-03-08 13:50:00,40.6,27.4,30.26,WNW,293,7.0,7.0,59,0.00,,,0.00,Wunderground v.1.15,2013-03-08 18:50:00,
2013-03-08 13:55:00,40.6,27.4,30.26,WNW,290,7.0,7.0,59,0.00,,,0.00,Wunderground v.1.15,2013-03-08 18:55:00,
2013-03-08 14:00:00,40.8,27.6,30.26,NW,307,6.0,6.0,59,0.00,,,0.00,Wunderground v.1.15,2013-03-08 19:00:00,
2013-03-08 14:05:00,41.0,27.8,30.26,NW,311,4.0,6.0,59,0.00,,,0.00,Wunderground v.1.15,2013-03-08 19:05:00,
2013-03-08 14:10:00,41.4,28.1,30.26,WNW,289,5.0,5.0,59,0.00,,,0.00,Wunderground v.1.15,2013-03-08 19:10:00,
2013-03-08 14:15:00,41.4,28.1,30.26,NW,311,5.0,5.0,59,0.00,,,0.00,Wunderground v.1.15,2013-03-08 19:15:00,
2013-03-08 14:20:00,41.1,27.9,30.26,WNW,302,5.0,5.0,59,0.00,,,0.00,Wunderground v.1.15,2013-03-08 19:20:00,
2013-03-08 14:25:00,41.4,28.9,30.25,NW,316,4.0,5.0,61,0.00,,,0.00,Wunderground v.1.15,2013-03-08 19:25:00,
2013-03-08 14:30:00,41.8,28.9,30.25,NNE,33,3.0,3.0,60,0.00,,,0.00,Wunderground v.1.15,2013-03-08 19:30:00,
2013-03-08 14:35:00,42.0,29.1,30.25,West,280,3.0,7.0,60,0.00,,,0.00,Wunderground v.1.15,2013-03-08 19:35:00,
2013-03-08 14:40:00,41.7,28.0,30.25,WNW,283,5.0,7.0,58,0.00,,,0.00,Wunderground v.1.15,2013-03-08 19:40:00,
2013-03-08 14:45:00,41.5,28.2,30.25,NW,319,6.0,9.0,59,0.00,,,0.00,Wunderground v.1.15,2013-03-08 19:45:00,
2013-03-08 14:50:00,41.6,28.3,30.26,North,352,6.0,6.0,59,0.00,,,0.00,Wunderground v.1.15,2013-03-08 19:50:00,
2013-03-08 14:55:00,41.8,28.5,30.26,NW,316,5.0,6.0,59,0.00,,,0.00,Wunderground v.1.15,2013-03-08 19:55:00,
2013-03-08 15:01:00,41.7,28.0,30.26,NW,319,6.0,6.0,58,0.00,,,0.00,Wunderground v.1.15,2013-03-08 20:01:00,
2013-03-08 15:05:00,41.4,27.7,30.26,North,352,8.0,11.0,58,0.00,,,0.00,Wunderground v.1.15,2013-03-08 20:05:00,
2013-03-08 15:10:00,41.1,28.3,30.26,NW,321,8.0,8.0,60,0.00,,,0.00,Wunderground v.1.15,2013-03-08 20:10:00,
2013-03-08 15:15:00,40.7,27.9,30.26,NW,317,7.0,8.0,60,0.00,,,0.00,Wunderground v.1.15,2013-03-08 20:15:00,
2013-03-08 15:20:00,40.9,28.1,30.26,NW,307,6.0,7.0,60,0.00,,,0.00,Wunderground v.1.15,2013-03-08 20:20:00,
2013-03-08 15:25:00,41.3,28.4,30.26,North,349,6.0,7.0,60,0.00,,,0.00,Wunderground v.1.15,2013-03-08 20:25:00,
2013-03-08 15:30:00,41.7,28.8,30.26,WNW,290,4.0,4.0,60,0.00,,,0.00,Wunderground v.1.15,2013-03-08 20:30:00,
2013-03-08 15:35:00,41.8,28.5,30.26,NNW,328,4.0,4.0,59,0.00,,,0.00,Wunderground v.1.15,2013-03-08 20:35:00,
2013-03-08 15:40:00,41.7,28.8,30.26,West,266,5.0,5.0,60,0.00,,,0.00,Wunderground v.1.15,2013-03-08 20:40:00,
2013-03-08 15:45:00,41.8,28.9,30.26,NW,310,5.0,5.0,60,0.00,,,0.00,Wunderground v.1.15,2013-03-08 20:45:00,
2013-03-08 15:50:00,41.3,28.0,30.26,NNW,335,5.0,7.0,59,0.00,,,0.00,Wunderground v.1.15,2013-03-08 20:50:00,
2013-03-08 15:55:00,40.9,28.5,30.26,NW,326,6.0,7.0,61,0.00,,,0.00,Wunderground v.1.15,2013-03-08 20:55:00,
2013-03-08 16:00:00,40.8,28.4,30.27,NW,323,5.0,5.0,61,0.00,,,0.00,Wunderground v.1.15,2013-03-08 21:00:00,
2013-03-08 16:05:00,40.8,28.4,30.27,NW,314,4.0,11.0,61,0.00,,,0.00,Wunderground v.1.15,2013-03-08 21:05:00,
2013-03-08 16:10:00,40.8,28.4,30.27,North,4,5.0,5.0,61,0.00,,,0.00,Wunderground v.1.15,2013-03-08 21:10:00,
2013-03-08 16:15:00,41.3,28.9,30.27,NW,306,5.0,5.0,61,0.00,,,0.00,Wunderground v.1.15,2013-03-08 21:15:00,
2013-03-08 16:20:00,41.4,28.5,30.27,NW,322,6.0,15.0,60,0.00,,,0.00,Wunderground v.1.15,2013-03-08 21:20:00,
2013-03-08 16:25:00,41.5,29.0,30.27,NNW,338,7.0,15.0,61,0.00,,,0.00,Wunderground v.1.15,2013-03-08 21:25:00,
2013-03-08 16:30:00,41.1,28.3,30.28,NNW,330,8.0,9.0,60,0.00,,,0.00,Wunderground v.1.15,2013-03-08 21:30:00,
2013-03-08 16:35:00,41.1,29.1,30.28,NW,325,7.0,9.0,62,0.00,,,0.00,Wunderground v.1.15,2013-03-08 21:35:00,
2013-03-08 16:45:00,41.1,28.7,30.28,NNE,16,7.0,16.0,61,0.00,,,0.00,Wunderground v.1.15,2013-03-08 21:45:00,
2013-03-08 16:50:00,41.1,28.7,30.28,NW,321,8.0,8.0,61,0.00,,,0.00,Wunderground v.1.15,2013-03-08 21:50:00,
2013-03-08 16:55:00,41.2,28.8,30.29,NNW,338,7.0,8.0,61,0.00,,,0.00,Wunderground v.1.15,2013-03-08 21:55:00,
2013-03-08 17:00:00,41.4,28.9,30.29,WNW,290,6.0,6.0,61,0.00,,,0.00,Wunderground v.1.15,2013-03-08 22:00:00,
2013-03-08 17:05:00,41.6,29.1,30.30,WNW,295,4.0,11.0,61,0.00,,,0.00,Wunderground v.1.15,2013-03-08 22:05:00,
2013-03-08 17:10:00,41.5,29.0,30.30,NW,310,5.0,6.0,61,0.00,,,0.00,Wunderground v.1.15,2013-03-08 22:10:00,
2013-03-08 17:15:00,41.3,28.9,30.30,NW,319,5.0,6.0,61,0.00,,,0.00,Wunderground v.1.15,2013-03-08 22:15:00,
2013-03-08 17:20:00,41.1,28.7,30.30,NNW,336,6.0,7.0,61,0.00,,,0.00,Wunderground v.1.15,2013-03-08 22:20:00,
2013-03-08 17:25:00,40.8,28.4,30.30,NW,311,7.0,7.0,61,0.00,,,0.00,Wunderground v.1.15,2013-03-08 22:25:00,
2013-03-08 17:30:00,40.7,28.3,30.30,WNW,300,8.0,10.0,61,0.00,,,0.00,Wunderground v.1.15,2013-03-08 22:30:00,
2013-03-08 17:35:00,40.5,28.5,30.30,NW,317,8.0,10.0,62,0.00,,,0.00,Wunderground v.1.15,2013-03-08 22:35:00,
2013-03-08 17:40:00,40.2,28.2,30.30,NW,323,8.0,8.0,62,0.00,,,0.00,Wunderground v.1.15,2013-03-08 22:40:00,
2013-03-08 17:45:00,40.2,28.2,30.30,WNW,290,7.0,8.0,62,0.00,,,0.00,Wunderground v.1.15,2013-03-08 22:45:00,
2013-03-08 17:50:00,40.1,28.5,30.30,NW,316,7.0,9.0,63,0.00,,,0.00,Wunderground v.1.15,2013-03-08 22:50:00,
2013-03-08 17:55:00,40.0,28.4,30.30,NW,314,6.0,9.0,63,0.00,,,0.00,Wunderground v.1.15,2013-03-08 22:55:00,
2013-03-08 18:00:00,39.7,28.5,30.31,NW,309,6.0,6.0,64,0.00,,,0.00,Wunderground v.1.15,2013-03-08 23:00:00,
2013-03-08 18:05:00,39.4,28.2,30.31,NW,316,5.0,6.0,64,0.00,,,0.00,Wunderground v.1.15,2013-03-08 23:05:00,
2013-03-08 18:15:00,39.1,28.3,30.31,NW,321,4.0,5.0,65,0.00,,,0.00,Wunderground v.1.15,2013-03-08 23:15:00,
2013-03-08 18:20:00,38.9,28.1,30.31,NNW,347,4.0,7.0,65,0.00,,,0.00,Wunderground v.1.15,2013-03-08 23:20:00,
2013-03-08 18:25:00,38.8,28.0,30.32,NW,309,4.0,7.0,65,0.00,,,0.00,Wunderground v.1.15,2013-03-08 23:25:00,
2013-03-08 18:30:00,38.5,28.1,30.32,NNW,342,4.0,4.0,66,0.00,,,0.00,Wunderground v.1.15,2013-03-08 23:30:00,
2013-03-08 18:35:00,38.2,27.8,30.32,North,360,3.0,4.0,66,0.00,,,0.00,Wunderground v.1.15,2013-03-08 23:35:00,
2013-03-08 18:40:00,38.1,28.1,30.33,NNW,334,3.0,3.0,67,0.00,,,0.00,Wunderground v.1.15,2013-03-08 23:40:00,
2013-03-08 18:45:00,37.9,27.9,30.33,North,359,3.0,3.0,67,0.00,,,0.00,Wunderground v.1.15,2013-03-08 23:45:00,
2013-03-08 18:50:00,37.9,27.9,30.33,North,353,3.0,3.0,67,0.00,,,0.00,Wunderground v.1.15,2013-03-08 23:50:00,
2013-03-08 18:55:00,38.0,27.6,30.33,NW,312,4.0,7.0,66,0.00,,,0.00,Wunderground v.1.15,2013-03-08 23:55:00,
2013-03-08 19:00:00,38.1,27.7,30.33,NW,325,5.0,11.0,66,0.00,,,0.00,Wunderground v.1.15,2013-03-09 00:00:00,
2013-03-08 19:05:00,38.2,27.5,30.34,North,349,7.0,11.0,65,0.00,,,0.00,Wunderground v.1.15,2013-03-09 00:05:00,
2013-03-08 19:10:00,38.1,27.7,30.34,NNW,328,7.0,9.0,66,0.00,,,0.00,Wunderground v.1.15,2013-03-09 00:10:00,
2013-03-08 19:15:00,38.2,27.5,30.34,NW,316,7.0,9.0,65,0.00,,,0.00,Wunderground v.1.15,2013-03-09 00:15:00,
2013-03-08 19:20:00,38.0,27.6,30.34,NNW,343,6.0,7.0,66,0.00,,,0.00,Wunderground v.1.15,2013-03-09 00:20:00,
2013-03-08 19:25:00,37.9,27.5,30.34,WNW,300,5.0,7.0,66,0.00,,,0.00,Wunderground v.1.15,2013-03-09 00:25:00,
2013-03-08 19:30:00,37.7,27.4,30.34,North,11,5.0,5.0,66,0.00,,,0.00,Wunderground v.1.15,2013-03-09 00:30:00,
2013-03-08 19:35:00,37.4,27.4,30.35,WNW,295,4.0,5.0,67,0.00,,,0.00,Wunderground v.1.15,2013-03-09 00:35:00,
2013-03-08 19:40:00,37.4,27.4,30.35,North,349,4.0,4.0,67,0.00,,,0.00,Wunderground v.1.15,2013-03-09 00:40:00,
2013-03-08 19:45:00,37.3,27.3,30.35,NW,319,4.0,5.0,67,0.00,,,0.00,Wunderground v.1.15,2013-03-09 00:45:00,
2013-03-08 19:55:00,37.3,27.3,30.35,NW,325,4.0,5.0,67,0.00,,,0.00,Wunderground v.1.15,2013-03-09 00:55:00,
2013-03-08 20:00:00,37.1,27.2,30.35,NW,325,5.0,5.0,67,0.00,,,0.00,Wunderground v.1.15,2013-03-09 01:00:00,
2013-03-08 20:05:00,36.9,27.3,30.35,WNW,288,4.0,5.0,68,0.00,,,0.00,Wunderground v.1.15,2013-03-09 01:05:00,
2013-03-08 20:10:00,36.8,27.2,30.35,North,6,4.0,7.0,68,0.00,,,0.00,Wunderground v.1.15,2013-03-09 01:10:00,
2013-03-08 20:15:00,36.8,27.2,30.36,NNW,340,4.0,7.0,68,0.00,,,0.00,Wunderground v.1.15,2013-03-09 01:15:00,
2013-03-08 20:20:00,36.8,27.2,30.36,North,352,3.0,5.0,68,0.00,,,0.00,Wunderground v.1.15,2013-03-09 01:20:00,
2013-03-08 20:25:00,36.7,27.1,30.37,NE,43,3.0,5.0,68,0.00,,,0.00,Wunderground v.1.15,2013-03-09 01:25:00,
2013-03-08 20:30:00,36.6,27.0,30.37,NNE,13,3.0,3.0,68,0.00,,,0.00,Wunderground v.1.15,2013-03-09 01:30:00,
2013-03-08 20:35:00,36.6,27.0,30.37,NNE,20,3.0,4.0,68,0.00,,,0.00,Wunderground v.1.15,2013-03-09 01:35:00,
2013-03-08 20:40:00,36.6,27.0,30.37,NNE,12,3.0,3.0,68,0.00,,,0.00,Wunderground v.1.15,2013-03-09 01:40:00,
2013-03-08 20:45:00,35.9,26.7,30.37,West,273,2.0,3.0,69,0.00,,,0.00,Wunderground v.1.15,2013-03-09 01:45:00,
2013-03-08 20:50:00,34.9,26.4,30.37,West,273,1.0,1.0,71,0.00,,,0.00,Wunderground v.1.15,2013-03-09 01:50:00,
2013-03-08 20:55:00,34.5,26.4,30.37,West,273,0.0,1.0,72,0.00,,,0.00,Wunderground v.1.15,2013-03-09 01:55:00,
2013-03-08 21:00:00,33.9,26.2,30.38,West,273,0.0,0.0,73,0.00,,,0.00,Wunderground v.1.15,2013-03-09 02:00:00,
2013-03-08 21:05:00,33.6,26.2,30.38,ESE,123,0.0,0.0,74,0.00,,,0.00,Wunderground v.1.15,2013-03-09 02:05:00,
2013-03-08 21:10:00,33.6,26.5,30.38,SSE,166,0.0,0.0,75,0.00,,,0.00,Wunderground v.1.15,2013-03-09 02:10:00,
2013-03-08 21:15:00,33.3,26.2,30.38,SSE,159,0.0,0.0,75,0.00,,,0.00,Wunderground v.1.15,2013-03-09 02:15:00,
2013-03-08 21:20:00,33.0,26.3,30.37,SSE,159,0.0,0.0,76,0.00,,,0.00,Wunderground v.1.15,2013-03-09 02:20:00,
2013-03-08 21:25:00,33.3,26.9,30.37,ENE,71,1.0,3.0,77,0.00,,,0.00,Wunderground v.1.15,2013-03-09 02:25:00,
2013-03-08 21:30:00,33.8,26.7,30.37,ENE,71,1.0,2.0,75,0.00,,,0.00,Wunderground v.1.15,2013-03-09 02:30:00,
2013-03-08 21:35:00,33.8,26.4,30.37,WNW,302,1.0,2.0,74,0.00,,,0.00,Wunderground v.1.15,2013-03-09 02:35:00,
2013-03-08 21:40:00,33.2,26.1,30.37,WNW,288,1.0,1.0,75,0.00,,,0.00,Wunderground v.1.15,2013-03-09 02:40:00,
2013-03-08 21:45:00,32.8,26.1,30.36,WNW,288,0.0,1.0,76,0.00,,,0.00,Wunderground v.1.15,2013-03-09 02:45:00,
2013-03-08 21:50:00,32.4,25.7,30.36,West,275,0.0,1.0,76,0.00,,,0.00,Wunderground v.1.15,2013-03-09 02:50:00,
2013-03-08 21:55:00,32.0,25.9,30.36,West,276,1.0,1.0,78,0.00,,,0.00,Wunderground v.1.15,2013-03-09 02:55:00,
2013-03-08 22:00:00,31.6,25.2,30.36,West,276,1.0,1.0,77,0.00,,,0.00,Wunderground v.1.15,2013-03-09 03:00:00,
2013-03-08 22:05:00,31.3,25.2,30.36,NNE,15,0.0,2.0,78,0.00,,,0.00,Wunderground v.1.15,2013-03-09 03:05:00,
2013-03-08 22:10:00,31.8,26.0,30.36,NNE,21,1.0,3.0,79,0.00,,,0.00,Wunderground v.1.15,2013-03-09 03:10:00,
2013-03-08 22:15:00,32.9,26.5,30.36,North,1,3.0,3.0,77,0.00,,,0.00,Wunderground v.1.15,2013-03-09 03:15:00,
2013-03-08 22:20:00,33.7,26.3,30.36,NNE,19,3.0,4.0,74,0.00,,,0.00,Wunderground v.1.15,2013-03-09 03:20:00,
2013-03-08 22:25:00,34.4,26.6,30.36,NNE,30,3.0,6.0,73,0.00,,,0.00,Wunderground v.1.15,2013-03-09 03:25:00,
2013-03-08 22:35:00,34.9,26.4,30.35,North,1,3.0,3.0,71,0.00,,,0.00,Wunderground v.1.15,2013-03-09 03:35:00,
2013-03-08 22:40:00,35.0,26.5,30.35,NNE,22,3.0,3.0,71,0.00,,,0.00,Wunderground v.1.15,2013-03-09 03:40:00,
2013-03-08 22:45:00,35.0,26.2,30.35,NNE,13,2.0,3.0,70,0.00,,,0.00,Wunderground v.1.15,2013-03-09 03:45:00,
2013-03-08 22:50:00,35.1,26.3,30.35,North,351,1.0,1.0,70,0.00,,,0.00,Wunderground v.1.15,2013-03-09 03:50:00,
2013-03-08 22:55:00,35.0,26.2,30.35,WNW,284,1.0,1.0,70,0.00,,,0.00,Wunderground v.1.15,2013-03-09 03:55:00,
2013-03-08 23:00:00,34.3,25.9,30.35,SW,226,1.0,1.0,71,0.00,,,0.00,Wunderground v.1.15,2013-03-09 04:00:00,
2013-03-08 23:05:00,33.1,25.4,30.35,WSW,237,1.0,1.0,73,0.00,,,0.00,Wunderground v.1.15,2013-03-09 04:05:00,
2013-03-08 23:10:00,31.9,24.9,30.36,SW,219,1.0,1.0,75,0.00,,,0.00,Wunderground v.1.15,2013-03-09 04:10:00,
2013-03-08 23:15:00,31.4,25.0,30.36,WSW,245,1.0,1.0,77,0.00,,,0.00,Wunderground v.1.15,2013-03-09 04:15:00,
2013-03-08 23:20:00,30.9,24.8,30.36,WSW,244,1.0,1.0,78,0.00,,,0.00,Wunderground v.1.15,2013-03-09 04:20:00,
2013-03-08 23:25:00,30.2,24.2,30.36,WSW,244,0.0,1.0,78,0.00,,,0.00,Wunderground v.1.15,2013-03-09 04:25:00,
2013-03-08 23:30:00,29.6,24.2,30.36,WSW,245,0.0,0.0,80,0.00,,,0.00,Wunderground v.1.15,2013-03-09 04:30:00,
2013-03-08 23:35:00,29.1,24.3,30.36,WSW,246,0.0,0.0,82,0.00,,,0.00,Wunderground v.1.15,2013-03-09 04:35:00,
2013-03-08 23:40:00,28.8,24.0,30.36,WSW,246,0.0,0.0,82,0.00,,,0.00,Wunderground v.1.15,2013-03-09 04:40:00,
2013-03-08 23:45:00,28.6,23.8,30.36,WSW,246,0.0,0.0,82,0.00,,,0.00,Wunderground v.1.15,2013-03-09 04:45:00,
2013-03-08 23:50:00,28.4,24.2,30.36,WSW,246,0.0,0.0,84,0.00,,,0.00,Wunderground v.1.15,2013-03-09 04:50:00,
2013-03-08 23:55:00,28.1,23.6,30.35,WSW,246,0.0,0.0,83,0.00,,,0.00,Wunderground v.1.15,2013-03-09 04:55:00,